Regional Weather Roundup
Issued by NWS

Home | Current Version | Previous Version | Text Only | Print | Product List | Glossary On
Versions: 1 2 3 4 5 6 7 8 9 10 11 12 13 14 15 16 17 18 19 20 21 22 23 24 25 26 27
000
ASUS45 KREV 201310
RWRNV
NEVADA REGIONAL WEATHER ROUNDUP
NATIONAL WEATHER SERVICE RENO NV
600 AM PDT SUN AUG 20 2017

NOTE: "FAIR" INDICATES FEW OR NO CLOUDS BELOW 12,000 FEET WITH NO
SIGNIFICANT WEATHER AND/OR OBSTRUCTIONS TO VISIBILITY.

NVZ001-003-004-201400-
WESTERN NEVADA

CITY           SKY/WX    TMP DP  RH WIND       PRES   REMARKS
RENO           PTCLDY    67  47  48 NW5       30.06S
MINDEN         FAIR      52  50  93 SE5       30.09R
FALLON         MOCLDY    67  40  37 W6        30.00R
LOVELOCK       PTCLDY    62  31  31 CALM      30.01R
HAWTHORNE        N/A     64  39  39 CALM      30.02R
$$

NVZ002-CAZ072-073-201400-
NORTHERN AND CENTRAL SIERRA

CITY           SKY/WX    TMP DP  RH WIND       PRES   REMARKS
S. LAKE TAHOE  PTCLDY    51  44  77 CALM      30.18R
TRUCKEE        PTCLDY    48  48 100 CALM      30.17S
SQUAW VLY 8000   N/A     57  37  47 N1          N/A
SUSANVILLE     CLEAR     55  37  50 W5        30.07R
MAMMOTH LAKES  FAIR      43  35  73 N5        30.23S
BRIDGEPORT     FAIR      43  38  82 CALM      30.20S
$$

NVZ030-031-036-201400-
NORTHERN NEVADA

CITY           SKY/WX    TMP DP  RH WIND       PRES   REMARKS
ELKO           CLOUDY    56  33  42 CALM      30.10R
WINNEMUCCA     PTCLDY    59  31  34 W6        30.06R
WENDOVER       PTCLDY    69  32  25 SE7       30.03R
$$

NVZ035-037-201400-
CENTRAL NEVADA

CITY           SKY/WX    TMP DP  RH WIND       PRES   REMARKS
ELY            PTCLDY    47  31  53 S12       30.18R
EUREKA           N/A     52  35  52 S5        30.13R
$$

NVZ013-014-201400-
SOUTH CENTRAL NEVADA

CITY           SKY/WX    TMP DP  RH WIND       PRES   REMARKS
TONOPAH        CLEAR     58  34  40 N9        30.11R
$$

NVZ017-020-022-201400-
SOUTHERN NEVADA

CITY           SKY/WX    TMP DP  RH WIND       PRES   REMARKS
LAS VEGAS      PTCLDY    82  47  29 S3        29.88R
N. LAS VEGAS   CLEAR     79  44  28 CALM      29.88R
NELLIS AFB     CLEAR     79  44  28 N6        29.86R
HENDERSON      CLEAR     78  47  33 S9        29.92R
MERCURY        CLEAR     71  36  27 VRB3      29.95R
$$




USA.gov is the U.S. government's official web portal to all federal, state and local government web resources and services.